Location: Gro�sch�nbrunn
(49.5760°N, 11.8868°E)
Time: 03:37:27
(UTC+00:00)

Cosmos 372 Rocket - Visible Passes

Search period start: 26 January 2021 00:00
Search period end: 05 February 2021 00:00
Orbit: 737 x 769 km, 74.1° (Epoch: 25 January)

Date Brightness Start Highest point End Pass type
(mag) Time Alt. Az. Time Alt. Az. Time Alt. Az.
26 Jan 4.6 03:40:16 54° E 03:40:16 54° E 03:44:47 10° SE visible
26 Jan 5.1 05:20:17 23° W 05:20:58 23° W 05:25:00 10° SSW visible
26 Jan 5.9 16:37:03 10° E 16:37:29 10° E 16:37:55 10° E visible
26 Jan 3.9 18:13:00 10° SSW 18:18:10 68° ESE 18:19:29 49° NE visible
26 Jan 6.2 19:56:17 10° WSW 19:59:31 22° WNW 19:59:31 22° WNW visible
27 Jan 6.1 03:00:32 22° ESE 03:00:32 22° ESE 03:02:42 10° ESE visible
27 Jan 4.6 04:40:33 37° SW 04:40:33 37° SW 04:44:32 10° S visible
27 Jan 4.4 17:31:58 10° S 17:36:46 39° ESE 17:39:47 21° NE visible
27 Jan 5.3 19:13:45 10° WSW 19:18:33 36° NW 19:19:48 32° NNW visible
28 Jan 5.2 04:00:55 29° S 04:00:55 29° S 04:03:29 10° SSE visible
28 Jan 5.1 16:51:31 10° SSE 16:55:30 23° E 16:59:33 10° NE visible
28 Jan 4.5 18:31:41 10° SW 18:36:50 59° WNW 18:39:58 24° N visible
28 Jan 6.7 20:17:10 10° WNW 20:19:46 14° NW 20:19:59 14° NW visible
29 Jan 6.4 03:21:23 13° SSE 03:21:23 13° SSE 03:21:58 10° SSE visible
29 Jan 6.1 05:01:25 10° SW 05:01:25 10° SW 05:01:30 10° SW visible
29 Jan 3.9 17:50:01 10° SSW 17:55:15 83° ESE 18:00:00 13° NNE visible
29 Jan 6.3 19:33:51 10° W 19:37:41 20° NW 19:40:00 16° NNW visible
30 Jan 4.3 17:08:49 10° S 17:13:48 48° ESE 17:18:50 10° NNE visible
30 Jan 5.7 18:51:09 10° WSW 18:55:45 31° NW 18:59:54 12° N visible
31 Jan 4.9 18:08:55 10° SW 18:13:58 49° WNW 18:19:06 10° NNE visible
31 Jan 6.8 19:55:12 10° WNW 19:57:06 12° NW 19:59:00 10° NNW visible
01 Feb 4.1 17:27:06 10° SSW 17:32:20 82° WNW 17:37:38 10° NNE visible
01 Feb 6.5 19:11:29 10° W 19:14:58 17° NW 19:18:27 10° N visible
02 Feb 4.1 16:45:44 10° S 16:50:50 58° ESE 16:56:01 10° NNE visible
02 Feb 6.0 18:28:36 10° WSW 18:32:58 26° NW 18:37:24 10° N visible
03 Feb 5.2 17:46:12 10° SW 17:51:08 41° WNW 17:56:08 10° NNE visible
03 Feb 6.9 19:33:45 10° NW 19:34:26 10° NW 19:35:06 10° NNW visible
04 Feb 4.4 17:04:14 10° SSW 17:09:27 69° WNW 17:14:43 10° NNE visible
04 Feb 6.6 18:49:13 10° WNW 18:52:14 15° NW 18:55:17 10° N visible
